,,PressureMeas_1m,,PRMeasQMR101_1,,RHStat155_1m_1,,SRMeasQMS101R_1m,,TAStat155_1m_1,,GenWind_1,,GenWind_1,
2019-04-07, 00:00:07,VALID,919.365,VALID,0.0,VALID,99.147,VALID,-0.007,VALID,21.156,INVALID,360.0,VALID,0.0,
2019-04-07, 00:01:07,VALID,919.351,VALID,0.0,VALID,99.168,VALID,-0.001,VALID,21.193,INVALID,360.0,VALID,0.0,
2019-04-07, 00:02:07,VALID,919.352,VALID,0.0,VALID,99.121,VALID,0.004,VALID,21.179,INVALID,360.0,VALID,0.0,
2019-04-07, 00:03:07,VALID,919.348,VALID,0.0,VALID,99.12,VALID,0.002,VALID,21.157,INVALID,360.0,VALID,0.0,
2019-04-07, 00:04:06,VALID,919.335,VALID,0.0,VALID,99.137,VALID,-0.024,VALID,21.177,INVALID,360.0,VALID,0.0,
2019-04-07, 00:05:06,VALID,919.32,VALID,0.0,VALID,99.119,VALID,-0.015,VALID,21.174,INVALID,360.0,VALID,0.0,
2019-04-07, 00:06:06,VALID,919.317,VALID,0.0,VALID,99.137,VALID,-0.004,VALID,21.191,INVALID,360.0,VALID,0.0,
2019-04-07, 00:07:06,VALID,919.313,VALID,0.0,VALID,99.141,VALID,-0.024,VALID,21.199,INVALID,360.0,VALID,0.0,
2019-04-07, 00:08:06,VALID,919.291,VALID,0.0,VALID,99.119,VALID,-0.013,VALID,21.138,INVALID,360.0,VALID,0.0,
2019-04-07, 00:09:06,VALID,919.304,VALID,0.0,VALID,99.06,VALID,0.003,VALID,21.054,INVALID,360.0,VALID,0.0,
2019-04-07, 00:10:06,VALID,919.291,VALID,0.0,VALID,99.039,VALID,-0.008,VALID,21.009,INVALID,360.0,VALID,0.0,
2019-04-07, 00:11:06,VALID,919.299,VALID,0.0,VALID,99.064,VALID,-0.017,VALID,20.994,INVALID,360.0,VALID,0.0,
2019-04-07, 00:12:06,VALID,919.286,VALID,0.0,VALID,99.066,VALID,-0.008,VALID,20.999,INVALID,360.0,VALID,0.0,
2019-04-07, 00:13:06,VALID,919.278,VALID,0.0,VALID,99.074,VALID,-0.006,VALID,20.988,INVALID,360.0,VALID,0.0,
2019-04-07, 00:14:06,VALID,919.266,VALID,0.0,VALID,99.076,VALID,0.012,VALID,20.98,INVALID,360.0,VALID,0.0,
2019-04-07, 00:15:06,VALID,919.256,VALID,0.0,VALID,99.108,VALID,0.008,VALID,20.963,INVALID,360.0,VALID,0.0,
2019-04-07, 00:16:06,VALID,919.233,VALID,0.0,VALID,99.105,VALID,0.028,VALID,20.963,INVALID,360.0,VALID,0.0,
2019-04-07, 00:17:06,VALID,919.238,VALID,0.0,VALID,99.122,VALID,0.015,VALID,20.964,INVALID,360.0,VALID,0.0,
2019-04-07, 00:18:06,VALID,919.233,VALID,0.0,VALID,99.116,VALID,-0.001,VALID,20.971,INVALID,360.0,VALID,0.0,
2019-04-07, 00:19:06,VALID,919.2,VALID,0.0,VALID,99.119,VALID,0.004,VALID,20.968,INVALID,360.0,VALID,0.0,
2019-04-07, 00:20:06,VALID,919.198,VALID,0.2,VALID,99.132,VALID,0.017,VALID,20.963,INVALID,360.0,VALID,0.0,
2019-04-07, 00:21:06,VALID,919.188,VALID,0.0,VALID,99.108,VALID,0.027,VALID,20.935,VALID,61.0,VALID,0.0,
2019-04-07, 00:22:06,VALID,919.167,VALID,0.0,VALID,99.107,VALID,0.018,VALID,20.923,INVALID,360.0,VALID,0.0,
2019-04-07, 00:23:06,VALID,919.136,VALID,0.0,VALID,99.112,VALID,0.01,VALID,20.924,INVALID,360.0,VALID,0.0,
2019-04-07, 00:24:06,VALID,919.122,VALID,0.0,VALID,99.105,VALID,0.006,VALID,20.929,INVALID,360.0,VALID,0.0,
2019-04-07, 00:25:06,VALID,919.097,VALID,0.0,VALID,99.115,VALID,-0.007,VALID,20.946,INVALID,360.0,VALID,0.0,
2019-04-07, 00:26:06,VALID,919.075,VALID,0.0,VALID,99.114,VALID,0.003,VALID,20.962,INVALID,360.0,VALID,0.0,
2019-04-07, 00:27:06,VALID,919.07,VALID,0.0,VALID,99.118,VALID,0.001,VALID,20.984,INVALID,360.0,VALID,0.0,
2019-04-07, 00:28:06,VALID,919.061,VALID,0.0,VALID,99.131,VALID,0.022,VALID,20.991,INVALID,360.0,VALID,0.0,
2019-04-07, 00:29:06,VALID,919.063,VALID,0.0,VALID,99.119,VALID,-0.005,VALID,21.012,INVALID,360.0,VALID,0.0,
2019-04-07, 00:30:06,VALID,919.087,VALID,0.0,VALID,99.121,VALID,-0.017,VALID,21.023,INVALID,360.0,VALID,0.0,
2019-04-07, 00:31:06,VALID,919.079,VALID,0.0,VALID,99.135,VALID,-0.012,VALID,21.026,INVALID,360.0,VALID,0.0,
2019-04-07, 00:32:06,VALID,919.079,VALID,0.0,VALID,99.114,VALID,-0.028,VALID,21.006,INVALID,360.0,VALID,0.0,
2019-04-07, 00:33:06,VALID,919.091,VALID,0.0,VALID,99.107,VALID,-0.036,VALID,20.991,INVALID,360.0,VALID,0.0,
2019-04-07, 00:34:06,VALID,919.085,VALID,0.0,VALID,99.124,VALID,-0.044,VALID,20.984,INVALID,360.0,VALID,0.0,
2019-04-07, 00:35:06,VALID,919.095,VALID,0.0,VALID,99.149,VALID,-0.026,VALID,20.996,INVALID,360.0,VALID,0.0,
2019-04-07, 00:36:06,VALID,919.106,VALID,0.0,VALID,99.151,VALID,-0.013,VALID,21.026,INVALID,360.0,VALID,0.0,
2019-04-07, 00:37:06,VALID,919.106,VALID,0.0,VALID,99.164,VALID,-0.018,VALID,21.04,INVALID,360.0,VALID,0.0,
2019-04-07, 00:38:06,VALID,919.096,VALID,0.0,VALID,99.181,VALID,-0.009,VALID,21.052,INVALID,360.0,VALID,0.0,
2019-04-07, 00:39:06,VALID,919.121,VALID,0.0,VALID,99.169,VALID,-0.019,VALID,21.048,INVALID,360.0,VALID,0.0,
2019-04-07, 00:40:06,VALID,919.122,VALID,0.0,VALID,99.162,VALID,-0.041,VALID,21.044,INVALID,360.0,VALID,0.0,
2019-04-07, 00:41:06,VALID,919.128,VALID,0.0,VALID,99.152,VALID,-0.013,VALID,21.05,INVALID,360.0,VALID,0.0,
2019-04-07, 00:42:06,VALID,919.107,VALID,0.0,VALID,99.161,VALID,-0.022,VALID,21.022,INVALID,360.0,VALID,0.0,
2019-04-07, 00:43:06,VALID,919.119,VALID,0.0,VALID,99.147,VALID,-0.009,VALID,21.018,INVALID,360.0,VALID,0.0,
2019-04-07, 00:44:06,VALID,919.11,VALID,0.0,VALID,99.175,VALID,-0.009,VALID,21.044,INVALID,360.0,VALID,0.0,
2019-04-07, 00:45:06,VALID,919.091,VALID,0.0,VALID,99.204,VALID,0.008,VALID,21.071,INVALID,360.0,VALID,0.0,
2019-04-07, 00:46:06,VALID,919.074,VALID,0.0,VALID,99.224,VALID,0.01,VALID,21.116,INVALID,360.0,VALID,0.0,
2019-04-07, 00:47:06,VALID,919.059,VALID,0.0,VALID,99.208,VALID,-0.012,VALID,21.11,INVALID,360.0,VALID,0.0,
2019-04-07, 00:48:06,VALID,919.047,VALID,0.0,VALID,99.218,VALID,0.007,VALID,21.134,INVALID,360.0,VALID,0.0,
2019-04-07, 00:49:06,VALID,919.035,VALID,0.0,VALID,99.247,VALID,0.005,VALID,21.128,INVALID,360.0,VALID,0.0,
2019-04-07, 00:50:06,VALID,919.018,VALID,0.0,VALID,99.214,VALID,-0.009,VALID,21.099,INVALID,360.0,VALID,0.0,
2019-04-07, 00:51:06,VALID,919.02,VALID,0.0,VALID,99.201,VALID,-0.015,VALID,21.06,INVALID,360.0,VALID,0.0,
2019-04-07, 00:52:06,VALID,919.015,VALID,0.0,VALID,99.197,VALID,-0.002,VALID,21.049,INVALID,360.0,VALID,0.0,
2019-04-07, 00:53:06,VALID,919.022,VALID,0.0,VALID,99.207,VALID,0.006,VALID,21.015,INVALID,360.0,VALID,0.0,
2019-04-07, 00:54:06,VALID,919.014,VALID,0.0,VALID,99.174,VALID,0.006,VALID,20.977,INVALID,360.0,VALID,0.0,
2019-04-07, 00:55:06,VALID,918.98,VALID,0.0,VALID,99.196,VALID,-0.003,VALID,20.992,INVALID,360.0,VALID,0.0,
2019-04-07, 00:56:06,VALID,918.971,VALID,0.0,VALID,99.218,VALID,0.02,VALID,20.975,INVALID,360.0,VALID,0.0,
2019-04-07, 00:57:06,VALID,918.96,VALID,0.0,VALID,99.212,VALID,0.011,VALID,21.003,INVALID,360.0,VALID,0.0,
2019-04-07, 00:58:06,VALID,918.924,VALID,0.0,VALID,99.219,VALID,0.001,VALID,20.987,INVALID,360.0,VALID,0.0,
2019-04-07, 00:59:06,VALID,918.897,VALID,0.0,VALID,99.212,VALID,-0.002,VALID,20.974,INVALID,360.0,VALID,0.0,
2019-04-07, 01:00:06,VALID,918.844,VALID,0.0,VALID,99.235,VALID,0.016,VALID,20.973,INVALID,360.0,VALID,0.0,
2019-04-07, 01:01:06,VALID,918.806,VALID,0.0,VALID,99.223,VALID,0.011,VALID,20.992,INVALID,360.0,VALID,0.0,
2019-04-07, 01:02:06,VALID,918.758,VALID,0.0,VALID,99.239,VALID,0.024,VALID,20.956,INVALID,360.0,VALID,0.0,
2019-04-07, 01:03:06,VALID,918.707,VALID,0.0,VALID,99.197,VALID,0.019,VALID,20.899,INVALID,360.0,VALID,0.0,
2019-04-07, 01:04:06,VALID,918.665,VALID,0.0,VALID,99.192,VALID,0.026,VALID,20.889,INVALID,360.0,VALID,0.0,
2019-04-07, 01:05:06,VALID,918.621,VALID,0.0,VALID,99.251,VALID,0.025,VALID,20.912,INVALID,360.0,VALID,0.0,
2019-04-07, 01:06:06,VALID,918.586,VALID,0.0,VALID,99.234,VALID,0.035,VALID,20.873,INVALID,360.0,VALID,0.0,
2019-04-07, 01:07:06,VALID,918.567,VALID,0.0,VALID,99.245,VALID,0.019,VALID,20.849,INVALID,360.0,VALID,0.0,
2019-04-07, 01:08:06,VALID,918.58,VALID,0.0,VALID,99.242,VALID,0.031,VALID,20.832,INVALID,360.0,VALID,0.0,
2019-04-07, 01:09:06,VALID,918.566,VALID,0.0,VALID,99.232,VALID,0.046,VALID,20.845,INVALID,360.0,VALID,0.0,
2019-04-07, 01:10:06,VALID,918.558,VALID,0.0,VALID,99.261,VALID,0.04,VALID,20.866,INVALID,360.0,VALID,0.0,
2019-04-07, 01:11:06,VALID,918.541,VALID,0.0,VALID,99.261,VALID,0.015,VALID,20.831,INVALID,360.0,VALID,0.0,
2019-04-07, 01:12:06,VALID,918.539,VALID,0.0,VALID,99.224,VALID,0.029,VALID,20.787,INVALID,360.0,VALID,0.0,
2019-04-07, 01:13:06,VALID,918.53,VALID,0.0,VALID,99.261,VALID,0.043,VALID,20.83,INVALID,360.0,VALID,0.0,
2019-04-07, 01:14:06,VALID,918.529,VALID,0.0,VALID,99.288,VALID,0.004,VALID,20.858,INVALID,360.0,VALID,0.0,
2019-04-07, 01:15:06,VALID,918.523,VALID,0.0,VALID,99.279,VALID,-0.015,VALID,20.812,INVALID,360.0,VALID,0.0,
2019-04-07, 01:16:06,VALID,918.49,VALID,0.0,VALID,99.259,VALID,-0.03,VALID,20.814,INVALID,360.0,VALID,0.0,
2019-04-07, 01:17:06,VALID,918.486,VALID,0.0,VALID,99.281,VALID,-0.028,VALID,20.846,INVALID,360.0,VALID,0.0,
2019-04-07, 01:18:06,VALID,918.481,VALID,0.0,VALID,99.31,VALID,-0.02,VALID,20.911,INVALID,360.0,VALID,0.0,
2019-04-07, 01:19:06,VALID,918.469,VALID,0.0,VALID,99.304,VALID,-0.027,VALID,20.925,INVALID,360.0,VALID,0.0,
2019-04-07, 01:20:06,VALID,918.472,VALID,0.0,VALID,99.3,VALID,-0.024,VALID,20.944,INVALID,360.0,VALID,0.0,
2019-04-07, 01:21:06,VALID,918.474,VALID,0.0,VALID,99.309,VALID,-0.027,VALID,20.86,INVALID,360.0,VALID,0.0,
2019-04-07, 01:22:06,VALID,918.461,VALID,0.0,VALID,99.295,VALID,-0.048,VALID,20.886,INVALID,360.0,VALID,0.0,
2019-04-07, 01:23:06,VALID,918.459,VALID,0.0,VALID,99.342,VALID,-0.052,VALID,20.947,INVALID,360.0,VALID,0.0,
2019-04-07, 01:24:06,VALID,918.461,VALID,0.0,VALID,99.296,VALID,-0.03,VALID,20.899,INVALID,360.0,VALID,0.0,
2019-04-07, 01:25:06,VALID,918.451,VALID,0.0,VALID,99.274,VALID,-0.026,VALID,20.852,INVALID,360.0,VALID,0.0,
2019-04-07, 01:26:06,VALID,918.442,VALID,0.0,VALID,99.271,VALID,-0.038,VALID,20.831,INVALID,360.0,VALID,0.0,
2019-04-07, 01:27:06,VALID,918.445,VALID,0.0,VALID,99.323,VALID,-0.029,VALID,20.848,INVALID,360.0,VALID,0.0,
2019-04-07, 01:28:06,VALID,918.428,VALID,0.0,VALID,99.302,VALID,-0.037,VALID,20.863,INVALID,360.0,VALID,0.0,
2019-04-07, 01:29:06,VALID,918.439,VALID,0.0,VALID,99.343,VALID,-0.006,VALID,20.912,INVALID,360.0,VALID,0.0,
2019-04-07, 01:30:06,VALID,918.419,VALID,0.0,VALID,99.319,VALID,0.023,VALID,20.907,INVALID,360.0,VALID,0.0,
2019-04-07, 01:31:06,VALID,918.396,VALID,0.0,VALID,99.332,VALID,0.028,VALID,20.896,INVALID,360.0,VALID,0.0,
2019-04-07, 01:32:06,VALID,918.37,VALID,0.0,VALID,99.324,VALID,0.028,VALID,20.897,INVALID,360.0,VALID,0.0,
2019-04-07, 01:33:06,VALID,918.355,VALID,0.0,VALID,99.352,VALID,0.03,VALID,20.926,INVALID,360.0,VALID,0.0,
2019-04-07, 01:34:06,VALID,918.318,VALID,0.0,VALID,99.34,VALID,0.039,VALID,20.926,INVALID,360.0,VALID,0.0,
2019-04-07, 01:35:06,VALID,918.268,VALID,0.0,VALID,99.304,VALID,0.035,VALID,20.9,INVALID,360.0,VALID,0.0,
2019-04-07, 01:36:06,VALID,918.237,VALID,0.0,VALID,99.315,VALID,0.036,VALID,20.875,INVALID,360.0,VALID,0.0,
2019-04-07, 01:37:06,VALID,918.186,VALID,0.0,VALID,99.31,VALID,0.02,VALID,20.871,INVALID,360.0,VALID,0.0,
2019-04-07, 01:38:06,VALID,918.154,VALID,0.0,VALID,99.34,VALID,0.042,VALID,20.888,INVALID,360.0,VALID,0.0,
2019-04-07, 01:39:06,VALID,918.124,VALID,0.0,VALID,99.327,VALID,0.028,VALID,20.877,INVALID,360.0,VALID,0.0,
2019-04-07, 01:40:06,VALID,918.118,VALID,0.0,VALID,99.314,VALID,0.026,VALID,20.85,INVALID,360.0,VALID,0.0,
2019-04-07, 01:41:06,VALID,918.102,VALID,0.0,VALID,99.34,VALID,0.022,VALID,20.833,INVALID,360.0,VALID,0.0,
2019-04-07, 01:42:06,VALID,918.094,VALID,0.0,VALID,99.333,VALID,0.024,VALID,20.835,INVALID,360.0,VALID,0.0,
2019-04-07, 01:43:06,VALID,918.069,VALID,0.0,VALID,99.334,VALID,0.028,VALID,20.853,INVALID,360.0,VALID,0.0,
2019-04-07, 01:44:06,VALID,918.066,VALID,0.0,VALID,99.349,VALID,0.037,VALID,20.872,INVALID,360.0,VALID,0.0,
2019-04-07, 01:45:06,VALID,918.062,VALID,0.0,VALID,99.372,VALID,0.039,VALID,20.905,INVALID,360.0,VALID,0.0,
2019-04-07, 01:46:06,VALID,918.054,VALID,0.0,VALID,99.369,VALID,0.033,VALID,20.919,INVALID,360.0,VALID,0.0,
2019-04-07, 01:47:06,VALID,918.061,VALID,0.0,VALID,99.377,VALID,0.025,VALID,20.949,INVALID,360.0,VALID,0.0,
2019-04-07, 01:48:06,VALID,918.045,VALID,0.0,VALID,99.371,VALID,0.049,VALID,20.947,INVALID,360.0,VALID,0.0,
2019-04-07, 01:49:06,VALID,918.053,VALID,0.0,VALID,99.351,VALID,0.02,VALID,20.96,INVALID,360.0,VALID,0.0,
2019-04-07, 01:50:06,VALID,918.071,VALID,0.0,VALID,99.358,VALID,0.029,VALID,20.956,INVALID,360.0,VALID,0.0,
2019-04-07, 01:51:06,VALID,918.074,VALID,0.0,VALID,99.364,VALID,0.02,VALID,20.931,INVALID,360.0,VALID,0.0,
2019-04-07, 01:52:06,VALID,918.097,VALID,0.0,VALID,99.355,VALID,0.023,VALID,20.945,INVALID,360.0,VALID,0.0,
2019-04-07, 01:53:06,VALID,918.127,VALID,0.0,VALID,99.358,VALID,0.022,VALID,20.893,INVALID,360.0,VALID,0.0,
2019-04-07, 01:54:06,VALID,918.12,VALID,0.0,VALID,99.35,VALID,0.028,VALID,20.904,INVALID,360.0,VALID,0.0,
2019-04-07, 01:55:06,VALID,918.111,VALID,0.0,VALID,99.376,VALID,0.028,VALID,20.887,INVALID,360.0,VALID,0.0,
2019-04-07, 01:56:06,VALID,918.124,VALID,0.0,VALID,99.347,VALID,0.045,VALID,20.887,INVALID,360.0,VALID,0.0,
2019-04-07, 01:57:06,VALID,918.099,VALID,0.0,VALID,99.36,VALID,0.043,VALID,20.901,INVALID,360.0,VALID,0.0,
2019-04-07, 01:58:06,VALID,918.11,VALID,0.0,VALID,99.371,VALID,0.044,VALID,20.894,INVALID,360.0,VALID,0.0,
2019-04-07, 01:59:06,VALID,918.091,VALID,0.0,VALID,99.366,VALID,0.023,VALID,20.888,INVALID,360.0,VALID,0.0,
2019-04-07, 02:00:06,VALID,918.068,VALID,0.0,VALID,99.364,VALID,-0.007,VALID,20.863,INVALID,360.0,VALID,0.0,
2019-04-07, 02:01:06,VALID,918.053,VALID,0.0,VALID,99.359,VALID,0.006,VALID,20.84,INVALID,360.0,VALID,0.0,
2019-04-07, 02:02:06,VALID,918.035,VALID,0.0,VALID,99.37,VALID,0.006,VALID,20.883,INVALID,360.0,VALID,0.0,
2019-04-07, 02:03:06,VALID,918.009,VALID,0.0,VALID,99.383,VALID,0.011,VALID,20.904,INVALID,360.0,VALID,0.0,
2019-04-07, 02:04:06,VALID,918.005,VALID,0.0,VALID,99.389,VALID,-0.004,VALID,20.88,INVALID,360.0,VALID,0.0,
2019-04-07, 02:05:06,VALID,917.986,VALID,0.0,VALID,99.368,VALID,0.003,VALID,20.848,INVALID,360.0,VALID,0.0,
2019-04-07, 02:06:06,VALID,917.986,VALID,0.0,VALID,99.39,VALID,0.009,VALID,20.898,INVALID,360.0,VALID,0.0,
2019-04-07, 02:07:06,VALID,917.989,VALID,0.0,VALID,99.404,VALID,0.002,VALID,20.92,INVALID,360.0,VALID,0.0,
2019-04-07, 02:08:06,VALID,917.978,VALID,0.0,VALID,99.363,VALID,0.012,VALID,20.865,INVALID,360.0,VALID,0.0,
2019-04-07, 02:09:06,VALID,917.973,VALID,0.0,VALID,99.349,VALID,0.027,VALID,20.814,INVALID,360.0,VALID,0.0,
2019-04-07, 02:10:06,VALID,917.949,VALID,0.0,VALID,99.355,VALID,0.017,VALID,20.8,INVALID,360.0,VALID,0.0,
2019-04-07, 02:11:06,VALID,917.927,VALID,0.0,VALID,99.366,VALID,-0.011,VALID,20.807,INVALID,360.0,VALID,0.0,
2019-04-07, 02:12:06,VALID,917.931,VALID,0.0,VALID,99.366,VALID,-0.006,VALID,20.823,INVALID,360.0,VALID,0.0,
2019-04-07, 02:13:06,VALID,917.908,VALID,0.0,VALID,99.39,VALID,-0.005,VALID,20.854,INVALID,360.0,VALID,0.0,
2019-04-07, 02:14:06,VALID,917.897,VALID,0.0,VALID,99.419,VALID,0.013,VALID,20.921,INVALID,360.0,VALID,0.0,
2019-04-07, 02:15:06,VALID,917.879,VALID,0.0,VALID,99.408,VALID,0.049,VALID,20.934,INVALID,360.0,VALID,0.0,
2019-04-07, 02:16:06,VALID,917.885,VALID,0.0,VALID,99.382,VALID,0.059,VALID,20.908,INVALID,360.0,VALID,0.0,
2019-04-07, 02:17:06,VALID,917.865,VALID,0.0,VALID,99.388,VALID,0.041,VALID,20.863,INVALID,360.0,VALID,0.0,
2019-04-07, 02:18:06,VALID,917.865,VALID,0.0,VALID,99.387,VALID,0.043,VALID,20.832,INVALID,360.0,VALID,0.0,
2019-04-07, 02:19:06,VALID,917.818,VALID,0.0,VALID,99.369,VALID,0.055,VALID,20.801,INVALID,360.0,VALID,0.0,
2019-04-07, 02:20:06,VALID,917.793,VALID,0.0,VALID,99.358,VALID,0.03,VALID,20.768,INVALID,360.0,VALID,0.0,
2019-04-07, 02:21:06,VALID,917.781,VALID,0.0,VALID,99.375,VALID,0.045,VALID,20.765,INVALID,360.0,VALID,0.0,
2019-04-07, 02:22:06,VALID,917.76,VALID,0.0,VALID,99.372,VALID,0.034,VALID,20.764,INVALID,360.0,VALID,0.0,
2019-04-07, 02:23:06,VALID,917.732,VALID,0.0,VALID,99.376,VALID,0.027,VALID,20.762,INVALID,360.0,VALID,0.0,
2019-04-07, 02:24:06,VALID,917.715,VALID,0.0,VALID,99.379,VALID,0.038,VALID,20.789,INVALID,360.0,VALID,0.0,
2019-04-07, 02:25:06,VALID,917.703,VALID,0.0,VALID,99.379,VALID,0.044,VALID,20.764,INVALID,360.0,VALID,0.0,
2019-04-07, 02:26:06,VALID,917.678,VALID,0.0,VALID,99.391,VALID,0.053,VALID,20.745,INVALID,360.0,VALID,0.0,
2019-04-07, 02:27:06,VALID,917.633,VALID,0.0,VALID,99.39,VALID,0.052,VALID,20.751,INVALID,360.0,VALID,0.0,
2019-04-07, 02:28:06,VALID,917.617,VALID,0.0,VALID,99.392,VALID,0.044,VALID,20.75,VALID,61.0,VALID,0.0,
2019-04-07, 02:29:06,VALID,917.589,VALID,0.0,VALID,99.389,VALID,0.039,VALID,20.737,INVALID,360.0,VALID,0.0,
2019-04-07, 02:30:06,VALID,917.579,VALID,0.0,VALID,99.396,VALID,0.025,VALID,20.728,INVALID,360.0,VALID,0.0,
2019-04-07, 02:31:06,VALID,917.582,VALID,0.0,VALID,99.387,VALID,0.021,VALID,20.719,INVALID,360.0,VALID,0.0,
2019-04-07, 02:32:06,VALID,917.585,VALID,0.0,VALID,99.396,VALID,0.005,VALID,20.725,INVALID,360.0,VALID,0.0,
2019-04-07, 02:33:06,VALID,917.595,VALID,0.0,VALID,99.39,VALID,-0.002,VALID,20.704,INVALID,360.0,VALID,0.0,
2019-04-07, 02:34:06,VALID,917.62,VALID,0.0,VALID,99.398,VALID,0.007,VALID,20.7,INVALID,360.0,VALID,0.0,
2019-04-07, 02:35:06,VALID,917.613,VALID,0.0,VALID,99.384,VALID,0.01,VALID,20.696,INVALID,360.0,VALID,0.0,
2019-04-07, 02:36:06,VALID,917.611,VALID,0.0,VALID,99.408,VALID,0.007,VALID,20.711,INVALID,360.0,VALID,0.0,
2019-04-07, 02:37:06,VALID,917.605,VALID,0.0,VALID,99.423,VALID,-0.0,VALID,20.735,INVALID,360.0,VALID,0.0,
2019-04-07, 02:38:06,VALID,917.572,VALID,0.0,VALID,99.413,VALID,0.006,VALID,20.72,INVALID,360.0,VALID,0.0,
2019-04-07, 02:39:06,VALID,917.564,VALID,0.0,VALID,99.397,VALID,0.016,VALID,20.712,INVALID,360.0,VALID,0.0,
2019-04-07, 02:40:06,VALID,917.535,VALID,0.0,VALID,99.408,VALID,0.007,VALID,20.716,INVALID,360.0,VALID,0.0,
2019-04-07, 02:41:06,VALID,917.528,VALID,0.0,VALID,99.401,VALID,-0.003,VALID,20.696,INVALID,360.0,VALID,0.0,
2019-04-07, 02:42:06,VALID,917.518,VALID,0.0,VALID,99.399,VALID,0.001,VALID,20.666,INVALID,360.0,VALID,0.0,
2019-04-07, 02:43:06,VALID,917.504,VALID,0.0,VALID,99.401,VALID,-0.002,VALID,20.641,INVALID,360.0,VALID,0.0,
2019-04-07, 02:44:06,VALID,917.522,VALID,0.0,VALID,99.385,VALID,-0.001,VALID,20.627,INVALID,360.0,VALID,0.0,
2019-04-07, 02:45:06,VALID,917.527,VALID,0.0,VALID,99.401,VALID,0.003,VALID,20.627,INVALID,360.0,VALID,0.0,
2019-04-07, 02:46:06,VALID,917.527,VALID,0.0,VALID,99.413,VALID,-0.002,VALID,20.625,INVALID,360.0,VALID,0.0,
2019-04-07, 02:47:06,VALID,917.559,VALID,0.0,VALID,99.42,VALID,-0.001,VALID,20.656,INVALID,360.0,VALID,0.0,
2019-04-07, 02:48:06,VALID,917.564,VALID,0.0,VALID,99.424,VALID,0.019,VALID,20.661,INVALID,360.0,VALID,0.0,
2019-04-07, 02:49:06,VALID,917.56,VALID,0.0,VALID,99.422,VALID,0.003,VALID,20.658,INVALID,360.0,VALID,0.0,
2019-04-07, 02:50:06,VALID,917.57,VALID,0.0,VALID,99.415,VALID,0.024,VALID,20.659,INVALID,360.0,VALID,0.0,
2019-04-07, 02:51:06,VALID,917.585,VALID,0.0,VALID,99.423,VALID,0.032,VALID,20.62,INVALID,360.0,VALID,0.0,
2019-04-07, 02:52:06,VALID,917.565,VALID,0.0,VALID,99.423,VALID,0.023,VALID,20.595,INVALID,360.0,VALID,0.0,
2019-04-07, 02:53:06,VALID,917.539,VALID,0.0,VALID,99.42,VALID,0.02,VALID,20.589,INVALID,360.0,VALID,0.0,
2019-04-07, 02:54:06,VALID,917.528,VALID,0.0,VALID,99.412,VALID,0.014,VALID,20.579,INVALID,360.0,VALID,0.0,
2019-04-07, 02:55:06,VALID,917.5,VALID,0.0,VALID,99.425,VALID,0.029,VALID,20.573,INVALID,360.0,VALID,0.0,
2019-04-07, 02:56:06,VALID,917.486,VALID,0.0,VALID,99.436,VALID,0.012,VALID,20.569,INVALID,360.0,VALID,0.0,
2019-04-07, 02:57:06,VALID,917.474,VALID,0.0,VALID,99.41,VALID,0.028,VALID,20.551,INVALID,360.0,VALID,0.0,
2019-04-07, 02:58:06,VALID,917.488,VALID,0.0,VALID,99.433,VALID,0.031,VALID,20.534,INVALID,360.0,VALID,0.0,
2019-04-07, 02:59:06,VALID,917.5,VALID,0.0,VALID,99.426,VALID,0.037,VALID,20.527,INVALID,360.0,VALID,0.0,
2019-04-07, 03:00:06,VALID,917.524,VALID,0.0,VALID,99.415,VALID,0.047,VALID,20.526,INVALID,360.0,VALID,0.0,
2019-04-07, 03:01:06,VALID,917.532,VALID,0.0,VALID,99.446,VALID,0.056,VALID,20.528,INVALID,360.0,VALID,0.0,
2019-04-07, 03:02:06,VALID,917.534,VALID,0.0,VALID,99.455,VALID,0.064,VALID,20.535,INVALID,360.0,VALID,0.0,
2019-04-07, 03:03:06,VALID,917.512,VALID,0.0,VALID,99.457,VALID,0.046,VALID,20.543,INVALID,360.0,VALID,0.0,
2019-04-07, 03:04:06,VALID,917.535,VALID,0.0,VALID,99.45,VALID,0.038,VALID,20.547,INVALID,360.0,VALID,0.0,
2019-04-07, 03:05:06,VALID,917.5,VALID,0.0,VALID,99.443,VALID,0.059,VALID,20.539,INVALID,360.0,VALID,0.0,
2019-04-07, 03:06:06,VALID,917.482,VALID,0.0,VALID,99.451,VALID,0.064,VALID,20.533,INVALID,360.0,VALID,0.0,
2019-04-07, 03:07:06,VALID,917.464,VALID,0.0,VALID,99.454,VALID,0.045,VALID,20.514,INVALID,360.0,VALID,0.0,
2019-04-07, 03:08:06,VALID,917.441,VALID,0.0,VALID,99.448,VALID,0.05,VALID,20.51,INVALID,360.0,VALID,0.0,
2019-04-07, 03:09:06,VALID,917.413,VALID,0.0,VALID,99.448,VALID,0.042,VALID,20.486,INVALID,360.0,VALID,0.0,
2019-04-07, 03:10:06,VALID,917.399,VALID,0.0,VALID,99.445,VALID,0.058,VALID,20.474,INVALID,360.0,VALID,0.0,
2019-04-07, 03:11:06,VALID,917.403,VALID,0.0,VALID,99.443,VALID,0.041,VALID,20.458,INVALID,360.0,VALID,0.0,
2019-04-07, 03:12:06,VALID,917.379,VALID,0.0,VALID,99.455,VALID,0.034,VALID,20.465,INVALID,360.0,VALID,0.0,
2019-04-07, 03:13:06,VALID,917.375,VALID,0.0,VALID,99.448,VALID,0.052,VALID,20.436,INVALID,360.0,VALID,0.0,
2019-04-07, 03:14:06,VALID,917.365,VALID,0.0,VALID,99.445,VALID,0.021,VALID,20.433,INVALID,360.0,VALID,0.0,
2019-04-07, 03:15:06,VALID,917.359,VALID,0.0,VALID,99.476,VALID,0.007,VALID,20.446,INVALID,360.0,VALID,0.0,
2019-04-07, 03:16:06,VALID,917.359,VALID,0.0,VALID,99.462,VALID,0.003,VALID,20.456,INVALID,360.0,VALID,0.0,
2019-04-07, 03:17:06,VALID,917.364,VALID,0.0,VALID,99.478,VALID,-0.003,VALID,20.463,INVALID,360.0,VALID,0.0,
2019-04-07, 03:18:06,VALID,917.395,VALID,0.0,VALID,99.475,VALID,0.006,VALID,20.467,INVALID,360.0,VALID,0.0,
2019-04-07, 03:19:06,VALID,917.417,VALID,0.0,VALID,99.479,VALID,-0.005,VALID,20.47,INVALID,360.0,VALID,0.0,
2019-04-07, 03:20:06,VALID,917.468,VALID,0.0,VALID,99.482,VALID,0.002,VALID,20.491,INVALID,360.0,VALID,0.0,
2019-04-07, 03:21:06,VALID,917.49,VALID,0.0,VALID,99.466,VALID,0.011,VALID,20.467,INVALID,360.0,VALID,0.0,
2019-04-07, 03:22:06,VALID,917.537,VALID,0.0,VALID,99.473,VALID,-0.013,VALID,20.452,INVALID,360.0,VALID,0.0,
2019-04-07, 03:23:06,VALID,917.542,VALID,0.0,VALID,99.488,VALID,0.005,VALID,20.449,INVALID,360.0,VALID,0.0,
2019-04-07, 03:24:06,VALID,917.576,VALID,0.0,VALID,99.471,VALID,0.003,VALID,20.453,INVALID,360.0,VALID,0.0,
2019-04-07, 03:25:06,VALID,917.586,VALID,0.0,VALID,99.471,VALID,0.017,VALID,20.466,INVALID,360.0,VALID,0.0,
2019-04-07, 03:26:06,VALID,917.598,VALID,0.0,VALID,99.484,VALID,0.009,VALID,20.459,INVALID,360.0,VALID,0.0,
2019-04-07, 03:27:06,VALID,917.61,VALID,0.0,VALID,99.477,VALID,-0.002,VALID,20.444,INVALID,360.0,VALID,0.0,
2019-04-07, 03:28:06,VALID,917.608,VALID,0.0,VALID,99.486,VALID,0.023,VALID,20.453,INVALID,360.0,VALID,0.0,
2019-04-07, 03:29:06,VALID,917.603,VALID,0.0,VALID,99.495,VALID,0.041,VALID,20.476,INVALID,360.0,VALID,0.0,
2019-04-07, 03:30:06,VALID,917.604,VALID,0.0,VALID,99.472,VALID,0.033,VALID,20.467,INVALID,360.0,VALID,0.0,
2019-04-07, 03:31:06,VALID,917.608,VALID,0.0,VALID,99.484,VALID,0.05,VALID,20.464,INVALID,360.0,VALID,0.0,
2019-04-07, 03:32:06,VALID,917.618,VALID,0.0,VALID,99.486,VALID,0.047,VALID,20.452,INVALID,360.0,VALID,0.0,
2019-04-07, 03:33:06,VALID,917.609,VALID,0.0,VALID,99.475,VALID,0.051,VALID,20.447,INVALID,360.0,VALID,0.0,
2019-04-07, 03:34:06,VALID,917.608,VALID,0.0,VALID,99.497,VALID,0.028,VALID,20.45,INVALID,360.0,VALID,0.0,
2019-04-07, 03:35:06,VALID,917.597,VALID,0.0,VALID,99.475,VALID,0.046,VALID,20.447,INVALID,360.0,VALID,0.0,
2019-04-07, 03:36:06,VALID,917.592,VALID,0.0,VALID,99.488,VALID,0.049,VALID,20.455,INVALID,360.0,VALID,0.0,
2019-04-07, 03:37:06,VALID,917.562,VALID,0.0,VALID,99.49,VALID,0.051,VALID,20.456,INVALID,360.0,VALID,0.0,
2019-04-07, 03:38:06,VALID,917.554,VALID,0.0,VALID,99.477,VALID,0.04,VALID,20.467,INVALID,360.0,VALID,0.0,